| time (UTC) | temp F | wind direction | speed MPH | gust MPH | rain 1hr in | rain 24hr in | rain mn in | humidity % | barometer mb |
| 20260507030023 | 48 | 4 | 0.0 | 0.0 | 0.00 | 0.00 | 0.00 | 78 | 1019.9 |
| 20260507024507 | 48 | 7 | 0.0 | 0.0 | 0.00 | 0.00 | 0.00 | 75 | 1019.9 |
| 20260507023013 | 49 | 22 | 0.0 | 2.0 | 0.00 | 0.00 | 0.00 | 74 | 1019.7 |
| 20260507021516 | 51 | 40 | 0.0 | 1.0 | 0.00 | 0.00 | 0.00 | 69 | 1019.5 |
| 20260507020022 | 53 | 40 | 0.0 | 2.0 | 0.00 | 0.00 | 0.00 | 65 | 1019.4 |
| 20260507014526 | 54 | 40 | 0.0 | 2.0 | 0.00 | 0.00 | 0.00 | 58 | 1019.1 |
| 20260507013011 | 55 | 15 | 1.0 | 2.0 | 0.00 | 0.00 | 0.00 | 55 | 1019.0 |
| 20260507011516 | 56 | 30 | 1.0 | 3.0 | 0.00 | 0.00 | 0.00 | 53 | 1019.0 |
| 20260507010016 | 57 | 33 | 2.0 | 5.0 | 0.00 | 0.00 | 0.00 | 51 | 1018.8 |
| 20260507004520 | 58 | 10 | 2.0 | 5.0 | 0.00 | 0.00 | 0.00 | 49 | 1018.7 |
| 20260507003024 | 58 | 51 | 3.0 | 5.0 | 0.00 | 0.00 | 0.00 | 48 | 1018.4 |
| 20260507001526 | 59 | 22 | 2.0 | 6.0 | 0.00 | 0.00 | 0.00 | 47 | 1018.3 |
| 20260507000015 | 59 | 15 | 3.0 | 6.0 | 0.00 | 0.00 | 0.00 | 46 | 1018.2 |
| 20260506234522 | 60 | 34 | 3.0 | 7.0 | 0.00 | 0.00 | 0.00 | 43 | 1017.9 |
| 20260506233027 | 61 | 359 | 3.0 | 9.0 | 0.00 | 0.00 | 0.00 | 42 | 1017.6 |
| 20260506231527 | 60 | 6 | 6.0 | 11.0 | 0.00 | 0.00 | 0.00 | 41 | 1017.7 |
| 20260506230027 | 61 | 25 | 7.0 | 11.0 | 0.00 | 0.00 | 0.00 | 42 | 1017.4 |
| 20260506224523 | 60 | 31 | 7.0 | 11.0 | 0.00 | 0.00 | 0.00 | 42 | 1017.4 |
| 20260506223024 | 61 | 22 | 4.0 | 10.0 | 0.00 | 0.00 | 0.00 | 42 | 1017.4 |
| 20260506221531 | 60 | 55 | 8.0 | 11.0 | 0.00 | 0.00 | 0.00 | 43 | 1017.3 |
| 20260506220031 | 61 | 45 | 5.0 | 12.0 | 0.00 | 0.00 | 0.00 | 43 | 1017.4 |
| 20260506214530 | 62 | 247 | 5.0 | 10.0 | 0.00 | 0.00 | 0.00 | 42 | 1017.4 |
| 20260506213011 | 61 | 12 | 6.0 | 13.0 | 0.00 | 0.00 | 0.00 | 43 | 1017.5 |
| 20260506211504 | 62 | 44 | 5.0 | 10.0 | 0.00 | 0.00 | 0.00 | 42 | 1017.4 |
| 20260506210008 | 61 | 140 | 5.0 | 10.0 | 0.00 | 0.00 | 0.00 | 43 | 1017.6 |
| 20260506204504 | 61 | 359 | 3.0 | 13.0 | 0.00 | 0.00 | 0.00 | 44 | 1018.0 |
| 20260506203003 | 62 | 30 | 3.0 | 13.0 | 0.00 | 0.00 | 0.00 | 43 | 1018.3 |
| 20260506201508 | 61 | 23 | 4.0 | 9.0 | 0.00 | 0.00 | 0.00 | 44 | 1018.5 |
| 20260506200005 | 61 | 50 | 3.0 | 14.0 | 0.00 | 0.00 | 0.00 | 42 | 1018.2 |
| 20260506194505 | 60 | 31 | 7.0 | 14.0 | 0.00 | 0.00 | 0.00 | 43 | 1018.3 |
| 20260506193006 | 61 | 24 | 5.0 | 12.0 | 0.00 | 0.00 | 0.00 | 44 | 1018.6 |
| 20260506191509 | 61 | 36 | 4.0 | 9.0 | 0.00 | 0.00 | 0.00 | 45 | 1018.9 |
| 20260506190006 | 60 | 57 | 5.0 | 12.0 | 0.00 | 0.00 | 0.00 | 47 | 1018.9 |
| 20260506184507 | 60 | 28 | 5.0 | 13.0 | 0.00 | 0.00 | 0.00 | 50 | 1019.2 |
| 20260506183008 | 59 | 74 | 2.0 | 7.0 | 0.00 | 0.00 | 0.00 | 52 | 1019.5 |
| 20260506181506 | 58 | 32 | 4.0 | 8.0 | 0.00 | 0.00 | 0.00 | 51 | 1020.1 |
| 20260506180006 | 58 | 34 | 3.0 | 6.0 | 0.00 | 0.00 | 0.00 | 51 | 1020.3 |
| 20260506174509 | 56 | 117 | 1.0 | 10.0 | 0.00 | 0.00 | 0.00 | 54 | 1020.5 |
| 20260506173008 | 57 | 107 | 2.0 | 11.0 | 0.00 | 0.00 | 0.00 | 54 | 1020.2 |
| 20260506171508 | 57 | 34 | 5.0 | 11.0 | 0.00 | 0.00 | 0.00 | 53 | 1020.3 |
| 20260506170006 | 57 | 34 | 5.0 | 12.0 | 0.00 | 0.00 | 0.00 | 54 | 1020.3 |
| 20260506164508 | 58 | 34 | 2.0 | 10.0 | 0.00 | 0.00 | 0.00 | 54 | 1020.1 |
| 20260506163019 | 57 | 93 | 5.0 | 9.0 | 0.00 | 0.00 | 0.00 | 52 | 1019.7 |
| 20260506161511 | 57 | 94 | 3.0 | 9.0 | 0.00 | 0.00 | 0.00 | 55 | 1019.4 |
| 20260506160014 | 56 | 1 | 6.0 | 10.0 | 0.00 | 0.00 | 0.00 | 55 | 1019.0 |
| 20260506154509 | 56 | 46 | 2.0 | 7.0 | 0.00 | 0.00 | 0.00 | 59 | 1019.1 |
| 20260506153014 | 54 | 25 | 3.0 | 8.0 | 0.00 | 0.00 | 0.00 | 62 | 1019.6 |
| 20260506151514 | 54 | 32 | 2.0 | 8.0 | 0.00 | 0.00 | 0.00 | 65 | 1019.2 |
| 20260506150012 | 54 | 7 | 2.0 | 8.0 | 0.00 | 0.00 | 0.00 | 66 | 1019.1 |
| 20260506144512 | 52 | 57 | 2.0 | 11.0 | 0.00 | 0.00 | 0.00 | 69 | 1019.1 |
| 20260506143017 | 51 | 126 | 2.0 | 7.0 | 0.00 | 0.00 | 0.00 | 72 | 1018.9 |
| 20260506141516 | 49 | 359 | 1.0 | 6.0 | 0.00 | 0.00 | 0.00 | 76 | 1019.2 |
| 20260506140016 | 48 | 36 | 4.0 | 8.0 | 0.00 | 0.00 | 0.00 | 76 | 1019.2 |
| 20260506134517 | 48 | 40 | 5.0 | 9.0 | 0.00 | 0.00 | 0.00 | 76 | 1019.4 |
| 20260506133018 | 48 | 46 | 3.0 | 7.0 | 0.00 | 0.00 | 0.00 | 79 | 1019.1 |
| 20260506131519 | 47 | 2 | 2.0 | 7.0 | 0.00 | 0.00 | 0.00 | 80 | 1019.1 |
| 20260506130019 | 46 | 50 | 3.0 | 10.0 | 0.00 | 0.00 | 0.00 | 83 | 1018.8 |
| 20260506124519 | 46 | 22 | 3.0 | 8.0 | 0.00 | 0.00 | 0.00 | 86 | 1019.0 |
| 20260506123019 | 46 | 11 | 5.0 | 10.0 | 0.00 | 0.00 | 0.00 | 87 | 1018.7 |
| 20260506121520 | 0 | 0.0 | 0.0 | 0.00 | 0.00 | 0.00 | 1019.3 | ||
| 20260506120030 | 0 | 0.0 | 0.0 | 0.00 | 0.00 | 0.00 | 1019.3 | ||
| 20260506114524 | 0 | 0.0 | 0.0 | 0.00 | 0.00 | 0.00 | 1018.4 | ||
| 20260506113022 | 0 | 0.0 | 0.0 | 0.00 | 0.00 | 0.00 | 1018.4 | ||
| 20260506111526 | 0 | 0.0 | 0.0 | 0.00 | 0.00 | 0.00 | 1018.5 | ||
| 20260506110023 | 0 | 0.0 | 0.0 | 0.00 | 0.00 | 0.00 | 1018.1 | ||
| 20260506104524 | 0 | 0.0 | 0.0 | 0.00 | 0.00 | 0.00 | 1017.7 | ||
| 20260506103024 | 0 | 0.0 | 0.0 | 0.00 | 0.00 | 0.00 | 1017.5 | ||
| 20260506101524 | 0 | 0.0 | 0.0 | 0.00 | 0.00 | 0.00 | 1017.0 | ||
| 20260506100024 | 0 | 0.0 | 0.0 | 0.00 | 0.00 | 0.00 | 1016.7 | ||
| 20260506094524 | 0 | 0.0 | 0.0 | 0.00 | 0.00 | 0.00 | 1016.3 | ||
| 20260506093039 | 0 | 0.0 | 0.0 | 0.00 | 0.00 | 0.00 | 1016.4 | ||
| 20260506091524 | 0 | 0.0 | 0.0 | 0.00 | 0.00 | 0.00 | 1016.3 | ||
| 20260506090027 | 0 | 0.0 | 0.0 | 0.00 | 0.00 | 0.00 | 1015.8 | ||
| 20260506084527 | 0 | 0.0 | 0.0 | 0.00 | 0.01 | 0.00 | 1015.4 | ||
| 20260506083028 | 0 | 0.0 | 0.0 | 0.00 | 0.02 | 0.00 | 1015.5 | ||
| 20260506081524 | 0 | 0.0 | 0.0 | 0.00 | 0.04 | 0.00 | 1015.2 | ||
| 20260506073028 | 46 | 33 | 2.0 | 3.0 | 0.00 | 0.16 | 0.00 | 86 | 1014.9 |
| 20260506071512 | 45 | 75 | 0.0 | 6.0 | 0.00 | 0.18 | 0.00 | 86 | 1014.6 |
| 20260506061526 | 46 | 27 | 1.0 | 6.0 | 0.00 | 0.32 | 0.00 | 86 | 1015.4 |
| 20260506044519 | 46 | 39 | 2.0 | 6.0 | 0.00 | 0.37 | 0.37 | 88 | 1015.7 |
| 20260506043022 | 46 | 31 | 4.0 | 6.0 | 0.00 | 0.37 | 0.37 | 89 | 1014.9 |
| 20260506041525 | 46 | 32 | 4.0 | 8.0 | 0.00 | 0.37 | 0.37 | 89 | 1014.9 |
| 20260506040026 | 46 | 49 | 1.0 | 7.0 | 0.00 | 0.37 | 0.37 | 89 | 1014.4 |
| 20260506034528 | 46 | 32 | 4.0 | 8.0 | 0.00 | 0.37 | 0.37 | 89 | 1014.3 |
| 20260506033021 | 46 | 32 | 5.0 | 10.0 | 0.00 | 0.37 | 0.37 | 89 | 1014.2 |
| 20260506031526 | 46 | 21 | 5.0 | 11.0 | 0.00 | 0.37 | 0.37 | 89 | 1014.0 |